Home   Weather   Acharnes   Past weeks

Flag for Greece Past Weather in Acharnes, Greece — Yesterday and Last 2 Weeks

Now
88 °F

Clear.


Feels Like: 86 °F
Forecast: 79 / 94 °F
Wind: 9 mph from North

Location: Elefsis Airport

Current Time: Jul 26, 2017 at 12:01:56 am

Latest Report: Jul 25, 2017 at 11:20 pm


Visibility: 10 mi

Pressure: 29.62 "Hg

Humidity: 33%

Dew Point: 55 °F

Location of AcharnesLocation

Past Weather in Acharnes — Graph

°F

Acharnes Temperature Yesterday

Maximum temperature yesterday: 99 °F (at 2:20 pm)
Minimum temperature yesterday: 75 °F (at 5:20 am)
Average temperature yesterday: 88 °F

High & Low Weather Summary for the Past Weeks

 TemperatureHumidityPressure
High100 °F (Jul 11, 4:50 pm)83% (Jul 17, 5:50 am)30.07 "Hg (Jul 17, 5:50 am)
Low66 °F (Jul 17, 5:50 am)16% (Jul 25, 8:20 pm)29.56 "Hg (Jul 25, 6:20 pm)
Average84 °F36%29.84 "Hg
* Reported Jul 10 10:20 pm — Jul 25 10:50 pm, Acharnes. Weather by CustomWeather, © 2017

Note: Actual official high and low records may vary slightly from our data, if they occured in-between our weather recording intervals... More about our weather records

Advertising

Acharnes Weather History for the Previous 24 Hours

Scroll right to see more
 ConditionsComfort  
Time TempWeatherWind HumidityBarometerVisibility
10:50 pm
Tue, Jul 25
88 °FClear.10 mph31%29.62 "Hg10 mi
10:20 pm88 °FClear.7 mph31%29.62 "Hg10 mi
9:50 pm90 °FClear.8 mph31%29.59 "Hg10 mi
9:20 pm90 °FClear.3 mph31%29.59 "Hg10 mi
8:50 pm95 °FClear.No wind16%29.59 "Hg10 mi
8:20 pm95 °FSunny.3 mph16%29.59 "Hg10 mi
7:50 pm95 °FSunny.3 mph25%29.56 "Hg10 mi
7:20 pm95 °FSunny.6 mph25%29.56 "Hg10 mi
6:50 pm97 °FSunny.9 mph23%29.56 "Hg10 mi
6:20 pm95 °FSunny.13 mph28%29.56 "Hg10 mi
5:50 pm93 °FSunny.14 mph28%29.59 "Hg10 mi
5:20 pm93 °FSunny.16 mph28%29.59 "Hg10 mi
4:50 pm97 °FSunny.14 mph25%29.59 "Hg10 mi
4:20 pm97 °FSunny.14 mph22%29.59 "Hg10 mi
3:50 pm97 °FSunny.16 mph23%29.59 "Hg10 mi
3:20 pm97 °FSunny.17 mph22%29.59 "Hg10 mi
2:50 pm97 °FSunny.18 mph25%29.59 "Hg10 mi
2:20 pm99 °FPassing clouds.16 mph19%29.59 "HgN/A
1:50 pm95 °FPassing clouds.12 mph28%29.62 "HgN/A
12:50 pm95 °FPassing clouds.14 mph26%29.62 "HgN/A
12:20 pm97 °FPassing clouds.12 mph25%29.62 "HgN/A
11:50 am95 °FSunny.7 mph22%29.62 "Hg10 mi
11:20 am93 °FSunny.6 mph24%29.62 "Hg10 mi
10:50 am91 °FSunny.No wind26%29.65 "Hg10 mi
10:20 am90 °FSunny.No wind31%29.65 "Hg10 mi
9:50 am90 °FSunny.No wind31%29.65 "Hg10 mi
9:20 am88 °FSunny.No wind33%29.68 "Hg10 mi
8:50 am84 °FSunny.No wind37%29.65 "Hg10 mi
8:20 am82 °FSunny.No wind37%29.68 "Hg10 mi
7:50 am79 °FSunny.No wind45%29.68 "Hg10 mi
7:20 am77 °FSunny.No wind47%29.65 "Hg10 mi
6:50 am75 °FSunny.No wind50%29.68 "Hg10 mi
6:20 am75 °FClear.No wind50%29.68 "Hg10 mi
5:50 am75 °FClear.No wind47%29.68 "Hg10 mi
5:20 am75 °FClear.5 mph47%29.68 "Hg10 mi
4:20 am77 °FClear.5 mph44%29.68 "Hg10 mi
3:20 am79 °FClear.5 mph42%29.71 "Hg10 mi
2:50 am79 °FClear.No wind42%29.74 "Hg10 mi
2:20 am79 °FClear.5 mph42%29.74 "Hg10 mi
1:50 am79 °FClear.5 mph42%29.74 "Hg10 mi
1:20 am81 °FClear.No wind39%29.74 "Hg10 mi
12:50 am81 °FClear.No wind42%29.74 "Hg10 mi
12:20 am81 °FClear.No wind42%29.74 "Hg10 mi
Weather by CustomWeather, © 2017

See weather overviewHow to use our weather pages